#timestamp,LO_Frequency,Hit,StdDev 
1584169215.4,286047000.6,P
1584169235.2,286047000.0,N
1584169255.0,286047000.3,N
1584169255.9,286047000.3,N
1584169275.8,286047002.7,Y
1584169295.6,286047000.9,P
1584169315.5,286047001.1,P
1584169335.3,286046999.8,N
1584169355.1,286047001.1,N
1584169375.9,286047002.3,Y
1584169395.7,286047000.8,P
1584169415.6,286047000.7,P
1584169435.4,286046999.2,P
1584169455.2,286046998.9,N
1584169475.1,286046998.2,N
1584169476.0,286046998.2,N
1584169495.8,286047000.7,N
1584169515.7,286047000.6,N
1584169535.5,286047000.6,N
1584169555.3,286047002.7,N
1584169575.2,286047004.3,Y
1584169595.0,286047003.3,P
1584169595.9,286047003.3,N
1584169615.8,286047004.1,N
1584169635.6,286047002.4,N
1584169655.4,286047001.0,N
1584169675.3,286046998.4,N
1584169695.1,286047000.9,N
1584169715.9,286047000.1,N
1584169735.7,286047000.3,N
1584169755.5,286047001.8,N
1584169775.4,286047000.4,N
1584169795.2,286047002.0,N
1584169815.0,286047000.0,N
1584169815.9,286047000.0,N
1584169835.8,286047000.7,N
1584169855.6,286047001.1,N
1584169875.5,286046999.2,N
1584169895.3,286046998.7,N
1584169915.1,286047001.1,N
1584169935.9,286046999.1,N
1584169955.7,286046999.4,N
1584169975.6,286046999.1,N
1584169995.4,286046997.0,N
1584170015.2,286046995.0,Y
1584170035.1,286046993.6,P
1584170036.0,286046993.6,N
1584170055.8,286046992.4,N
1584170075.7,286046991.0,N
1584170095.5,286046988.6,Y
1584170115.3,286046997.6,P
1584170135.2,286046998.2,N
1584170155.0,286046998.6,N
1584170155.9,286046998.6,N
1584170175.7,286046998.7,N
1584170195.6,286046998.2,N
1584170215.4,286047000.8,N
1584170235.3,286046998.3,N
1584170255.1,286046998.6,N
1584170256.0,286046998.6,N
1584170275.8,286046998.8,N
1584170295.7,286046998.4,N
1584170315.5,286046999.1,N
1584170335.4,286046996.9,N
1584170355.2,286046998.9,N
1584170375.0,286046998.7,N
1584170375.9,286046998.7,N
1584170395.8,286046999.1,N
1584170415.6,286046998.5,N
1584170435.4,286046999.0,N
1584170455.3,286046996.7,N
1584170475.1,286046998.8,N
1584170495.9,286046999.0,N
1584170515.7,286046999.1,N
1584170535.6,286046999.1,N
1584170555.4,286046998.8,N
1584170575.2,286047001.1,N
1584170595.1,286047001.2,N
1584170596.0,286047001.2,N
1584170615.8,286047000.8,N
1584170635.7,286046998.9,N
1584170655.5,286046996.5,Y
1584170675.3,286046999.3,P
1584170695.2,286046999.2,P
1584170715.0,286046998.9,P
1584170715.9,286046998.9,Y
1584170735.8,286046999.1,P
1584170755.6,286046996.7,P
1584170775.4,286046996.6,P
1584170795.3,286046997.5,N
1584170815.1,286046995.0,Y
1584170835.9,286046998.9,P
1584170855.7,286046999.6,N
1584170875.5,286046997.5,P
1584170895.4,286046998.5,N
1584170915.2,286046996.7,Y
1584170935.0,286046998.6,P
1584170935.9,286046998.6,P
1584170955.8,286046999.3,P
1584170975.6,286046997.2,Y
1584170995.5,286047011.9,P
1584171015.3,286046999.9,N
1584171035.1,286047000.3,N
1584171055.9,286046998.1,N
1584171075.7,286047001.0,N
1584171095.6,286047001.2,N
1584171115.4,286047000.0,N
1584171135.2,286047000.4,N
1584171155.1,286047000.1,N
1584171156.0,286047000.1,N
1584171175.8,286047002.8,N
1584171195.7,286047001.6,N
1584171215.5,286046999.7,N
1584171235.3,286047001.9,N
1584171255.2,286046999.8,N
1584171275.0,286047000.1,N
1584171275.9,286047000.1,N
1584171295.7,286046999.9,N
1584171315.6,286047002.6,N
1584171335.4,286047000.8,N
1584171355.3,286047000.3,N
1584171375.1,286047000.0,N
1584171395.8,286047004.3,N
1584171415.7,286047003.1,N
1584171435.5,286047001.9,N
1584171455.4,286047003.7,N
1584171475.2,286047002.1,N
1584171495.0,286047002.0,N
1584171495.9,286047002.0,N
1584171515.8,286047002.8,N
1584171535.6,286047002.5,N
1584171555.4,286047002.3,N
1584171575.3,286047003.9,N
1584171595.1,286047003.7,N
1584171615.9,286047001.5,N
1584171635.7,286047001.3,N
1584171655.5,286047004.4,Y
1584171675.4,286047002.8,P
1584171695.2,286047002.5,P
1584171715.1,286047000.2,N
1584171716.0,286047000.2,N
1584171735.8,286046998.2,N
1584171755.6,286046998.8,N
1584171775.5,286046998.5,N
1584171795.3,286046998.4,N
1584171815.2,286046998.1,N
1584171835.9,286046998.2,N
1584171855.7,286046998.4,N
1584171875.6,286046998.1,N
1584171895.4,286046996.8,N
1584171915.3,286046999.0,N
1584171935.1,286046995.0,N
1584171936.0,286046995.0,N
1584171955.8,286046999.2,N
1584171975.7,286046998.4,N
1584171995.5,286046998.3,N
1584172015.3,286046999.0,N
1584172035.2,286046998.9,N
1584172055.0,286046998.4,N
1584172055.9,286046998.4,N
1584172075.8,286047000.7,N
1584172095.6,286046998.4,N
1584172115.4,286046999.4,N
1584172135.3,286046996.8,N
1584172155.1,286046996.7,N
1584172175.9,286046999.4,N
1584172195.7,286046998.9,N
1584172215.5,286046998.3,N
1584172235.4,286046999.9,N
1584172255.2,286047001.4,N
1584172275.0,286047001.3,N
1584172276.0,286047001.3,N
1584172295.8,286047004.4,N
1584172315.6,286047001.5,N
1584172335.5,286047001.9,N
1584172355.3,286047004.3,N
1584172375.1,286047004.4,N
1584172395.9,286047001.9,N
1584172415.7,286047002.1,N
1584172435.7,286047002.0,N
1584172455.5,286047002.6,N
1584172475.4,286047002.2,N
1584172495.2,286047002.2,N
1584172515.1,286047002.4,N
1584172516.0,286047002.4,N
1584172535.8,286047002.4,N
1584172555.6,286046999.7,N
1584172575.5,286047002.4,N
1584172595.3,286047000.1,N
1584172615.2,286047002.0,N
1584172635.9,286047003.8,N
1584172655.7,286047004.4,N
1584172675.6,286047001.8,N
1584172695.4,286047004.3,N
1584172715.3,286047000.3,N
1584172735.1,286047001.0,N
1584172736.0,286047001.0,N
1584172755.8,286047002.0,N
1584172775.7,286047004.3,Y
1584172795.5,286047001.6,P
